DW8947 Weather Reports


time (UTC)temp
F
wind
direction
speed
knots
gust
knots
rain 1hr
in
rain 24hr
in
rain mn
in
humidity
%
barometer
mb
20260905024705 62 140 0.0 0.0 0.00 0.00 0.00 73 1013.6
20260905024204 63 140 0.0 0.9 0.00 0.00 0.00 73 1013.6
20260905023704 63 140 0.0 1.7 0.00 0.00 0.00 73 1013.6
20260905022704 63 140 0.0 1.7 0.00 0.00 0.00 73 1013.6
20260905015205 65 94 0.0 0.0 0.00 0.00 0.00 69 1013.5
20260905014705 65 94 0.0 1.7 0.00 0.00 0.00 69 1013.5
20260905013204 66 176 0.0 1.7 0.00 0.00 0.00 68 1013.3
20260905012705 66 197 0.0 1.7 0.00 0.00 0.00 68 1013.2
20260905012205 66 244 0.9 1.7 0.00 0.00 0.00 66 1013.1
20260905010705 66 16 0.0 0.9 0.00 0.00 0.00 66 1013.0
20260905005204 66 173 0.0 1.7 0.00 0.00 0.00 64 1012.8
20260905003704 67 339 0.9 1.7 0.00 0.00 0.00 62 1012.5
20260905003204 67 298 0.9 1.7 0.00 0.00 0.00 62 1012.5
20260905002205 67 303 0.9 2.6 0.00 0.00 0.00 62 1012.3
20260905001704 67 8 0.0 1.7 0.00 0.00 0.00 65 1012.3
20260905000205 68 331 0.9 1.7 0.00 0.00 0.00 65 1012.2
20260904235704 68 89 0.9 1.7 0.00 0.00 0.00 61 1012.2
20260904234704 68 146 0.0 1.7 0.00 0.00 0.00 62 1012.2
20260904234205 68 132 0.9 1.7 0.00 0.00 0.00 62 1012.2
20260904232204 68 47 0.9 0.9 0.00 0.00 0.00 66 1012.2
20260904231705 68 167 0.0 1.7 0.00 0.00 0.00 64 1012.1
20260904231205 68 229 0.0 1.7 0.00 0.00 0.00 63 1012.0
20260904225705 68 160 0.9 0.9 0.00 0.00 0.00 61 1012.0
20260904224204 68 155 0.0 2.6 0.00 0.00 0.00 64 1011.9
20260904223204 67 174 0.9 1.7 0.00 0.00 0.00 64 1012.0
20260904222204 67 335 0.0 1.7 0.00 0.00 0.00 63 1011.9
20260904215704 66 191 0.0 1.7 0.00 0.00 0.00 65 1012.0
20260904215205 66 245 0.0 1.7 0.00 0.00 0.00 65 1012.0
20260904214705 66 277 0.0 1.7 0.00 0.00 0.00 65 1011.9
20260904214205 66 238 0.9 1.7 0.00 0.00 0.00 64 1012.0
20260904213704 66 260 0.0 2.6 0.00 0.00 0.00 64 1012.1
20260904213205 66 318 0.9 2.6 0.00 0.00 0.00 66 1012.0
20260904212204 66 161 0.0 0.9 0.00 0.00 0.00 67 1012.0
20260904211205 67 281 0.9 1.7 0.00 0.00 0.00 63 1011.9
20260904210705 67 176 0.9 1.7 0.00 0.00 0.00 64 1011.9
20260904210204 67 312 0.0 1.7 0.00 0.00 0.00 64 1011.8
20260904205705 67 302 0.0 0.9 0.00 0.00 0.00 62 1011.9
20260904204204 69 223 0.9 2.6 0.00 0.00 0.00 56 1011.8
20260904201704 70 156 0.9 1.7 0.00 0.00 0.00 56 1011.9
20260904201205 70 135 0.9 1.7 0.00 0.00 0.00 59 1011.9
20260904193704 69 317 0.0 1.7 0.00 0.00 0.00 64 1012.0
20260904193205 68 310 0.9 0.9 0.00 0.00 0.00 65 1012.0
20260904191705 66 77 0.0 1.7 0.00 0.00 0.00 73 1012.1
20260904191205 65 239 0.0 1.7 0.00 0.00 0.00 71 1012.1
20260904190204 64 105 0.0 1.7 0.00 0.00 0.00 74 1012.1
20260904185704 63 17 0.9 1.7 0.00 0.00 0.00 75 1012.1
20260904184705 61 19 0.0 1.7 0.00 0.00 0.00 82 1012.2
20260904184204 61 19 0.0 1.7 0.00 0.00 0.00 80 1012.3
20260904183704 61 19 0.0 0.0 0.00 0.00 0.00 81 1012.3
20260904183204 62 19 0.0 1.7 0.00 0.00 0.00 81 1012.3
20260904182204 61 19 0.0 1.7 0.00 0.00 0.00 81 1012.2
20260904181204 61 75 0.0 1.7 0.00 0.00 0.00 84 1012.1
20260904175205 60 61 0.9 1.7 0.00 0.00 0.00 83 1012.1
20260904174705 60 61 0.0 1.7 0.00 0.00 0.00 83 1012.1
20260904173704 60 61 0.0 1.7 0.00 0.00 0.00 85 1012.1
20260904173204 59 61 0.0 1.7 0.00 0.00 0.00 85 1012.1
20260904172705 59 61 0.0 1.7 0.00 0.00 0.00 85 1012.2
20260904171705 59 61 0.0 1.7 0.00 0.00 0.00 85 1012.1
20260904171204 59 61 0.0 0.0 0.00 0.00 0.00 85 1012.1
20260904170704 59 61 0.0 0.0 0.00 0.00 0.00 85 1012.1
20260904170204 59 61 0.0 1.7 0.00 0.00 0.00 86 1012.0
20260904165204 59 61 0.0 1.7 0.00 0.00 0.00 85 1012.0
20260904164704 59 61 0.9 1.7 0.00 0.00 0.00 85 1011.9
20260904163704 58 273 0.0 1.7 0.00 0.00 0.00 85 1012.0
20260904162704 58 273 0.0 1.7 0.00 0.00 0.00 86 1012.0
20260904161705 58 318 0.0 1.7 0.00 0.00 0.00 88 1012.0
20260904160705 57 341 0.0 1.7 0.00 0.00 0.00 89 1012.0
20260904154704 55 116 0.0 1.7 0.00 0.00 0.00 91 1011.9
20260904154205 55 116 0.0 1.7 0.00 0.00 0.00 91 1011.9
20260904152204 54 116 0.0 0.0 0.00 0.00 0.00 92 1011.8
20260904151704 54 116 0.0 0.0 0.00 0.00 0.00 92 1011.7
20260904151205 54 116 0.0 0.0 0.00 0.00 0.00 92 1011.7
20260904150705 54 116 0.0 0.0 0.00 0.00 0.00 92 1011.6
20260904150204 54 116 0.0 0.0 0.00 0.00 0.00 92 1011.5
20260904145704 54 116 0.0 0.0 0.00 0.00 0.00 92 1011.4
20260904145204 54 116 0.0 0.0 0.00 0.00 0.00 92 1011.3
20260904144704 54 116 0.0 0.0 0.00 0.00 0.00 92 1011.3
20260904142704 54 116 0.0 0.0 0.00 0.00 0.00 92 1011.2
20260904142205 54 116 0.0 0.0 0.00 0.00 0.00 92 1011.1
20260904141705 54 116 0.0 0.0 0.00 0.01 0.00 92 1011.1
20260904140704 54 116 0.0 0.0 0.00 0.01 0.00 92 1011.0
20260904135704 54 116 0.0 0.0 0.00 0.01 0.00 92 1010.9
20260904131204 54 116 0.0 0.0 0.00 0.01 0.00 91 1010.2
20260904130705 54 116 0.0 0.0 0.00 0.01 0.00 91 1010.2
20260904130204 54 116 0.0 1.7 0.00 0.01 0.00 91 1010.1
20260904125205 54 116 0.0 1.7 0.00 0.01 0.00 91 1010.1
20260904123205 54 116 0.0 1.7 0.00 0.01 0.00 91 1010.1
20260904122704 54 116 0.0 1.7 0.00 0.01 0.00 90 1010.1
20260904120704 54 116 0.0 1.7 0.00 0.01 0.00 91 1010.1
20260904114205 54 116 0.0 1.7 0.00 0.01 0.00 90 1009.7
20260904113704 54 116 0.0 1.7 0.00 0.01 0.00 90 1009.6
20260904113205 54 116 0.0 0.0 0.00 0.01 0.00 90 1009.6
20260904105704 54 116 0.0 1.7 0.00 0.03 0.00 90 1009.5
20260904104704 54 116 0.0 0.0 0.00 0.03 0.00 89 1009.6
20260904104204 54 116 0.0 0.0 0.00 0.03 0.00 89 1009.5
20260904103705 54 116 0.0 0.0 0.00 0.03 0.00 89 1009.4
20260904102704 54 116 0.0 0.0 0.00 0.03 0.00 89 1009.5
20260904102204 54 116 0.0 0.0 0.00 0.03 0.00 89 1009.5
20260904101204 55 116 0.0 0.0 0.00 0.03 0.00 88 1009.3
20260904100704 55 116 0.0 0.9 0.00 0.03 0.00 88 1009.3
20260904095704 55 116 0.0 1.7 0.00 0.03 0.00 88 1009.1
20260904094705 55 116 0.0 0.0 0.00 0.03 0.00 88 1009.2
20260904092204 55 89 0.0 0.9 0.00 0.03 0.00 86 1009.0
20260904091704 55 69 0.0 0.0 0.00 0.03 0.00 84 1008.9
20260904091204 55 69 0.0 0.0 0.00 0.03 0.00 84 1009.0
20260904090704 55 69 0.0 0.0 0.00 0.03 0.00 85 1009.1
20260904090204 55 69 0.0 0.0 0.00 0.03 0.00 84 1009.1
20260904085204 56 69 0.0 0.0 0.00 0.03 0.00 84 1009.2
20260904084204 56 69 0.0 0.0 0.00 0.03 0.00 85 1009.3
20260904083205 56 69 0.0 0.0 0.00 0.03 0.00 84 1009.4
20260904082204 56 69 0.0 0.0 0.00 0.03 0.00 84 1009.5
20260904080704 56 69 0.0 0.0 0.00 0.03 0.00 82 1009.5
20260904075704 56 69 0.0 0.0 0.00 0.03 0.00 83 1009.4
20260904074704 56 69 0.0 0.0 0.00 0.03 0.00 80 1009.4
20260904074204 56 69 0.0 0.0 0.00 0.03 0.00 80 1009.4
20260904073705 56 69 0.0 0.0 0.00 0.03 0.00 81 1009.3
20260904073205 56 69 0.0 0.0 0.00 0.03 0.00 81 1009.3
20260904070705 56 69 0.0 0.0 0.00 0.03 0.00 80 1009.1
20260904070204 56 69 0.0 0.0 0.00 0.03 0.00 80 1009.1
20260904064704 56 69 0.0 0.0 0.00 0.03 0.03 82 1009.2
20260904063204 56 69 0.0 0.0 0.00 0.03 0.03 80 1009.1
20260904062704 56 69 0.0 0.0 0.00 0.03 0.03 80 1009.1
20260904061204 57 69 0.0 0.0 0.00 0.03 0.03 81 1009.0
20260904060705 57 69 0.0 0.0 0.00 0.03 0.03 79 1008.9
20260904055204 57 69 0.0 0.0 0.00 0.03 0.03 80 1009.0
20260904053204 58 69 0.0 0.0 0.00 0.03 0.03 77 1009.0
20260904051704 58 69 0.0 0.0 0.00 0.03 0.03 75 1009.1
20260904051204 58 69 0.0 0.0 0.00 0.03 0.03 75 1009.1
20260904045704 59 69 0.0 0.0 0.00 0.03 0.03 75 1009.1
20260904044205 59 69 0.0 0.0 0.00 0.03 0.03 75 1009.1
20260904043705 59 69 0.0 0.0 0.00 0.03 0.03 75 1009.1
20260904043205 59 69 0.0 0.0 0.00 0.03 0.03 75 1009.0
20260904042704 59 69 0.0 0.0 0.00 0.03 0.03 76 1009.1
20260904042204 58 69 0.0 0.0 0.00 0.03 0.03 77 1009.2
20260904041704 58 69 0.0 0.0 0.00 0.03 0.03 77 1009.2
20260904040705 58 69 0.0 0.0 0.00 0.03 0.03 78 1009.1
20260904035704 58 69 0.0 0.0 0.00 0.03 0.03 78 1009.0
20260904035204 58 69 0.0 0.0 0.00 0.03 0.03 78 1009.0
20260904034704 58 69 0.0 0.0 0.00 0.03 0.03 77 1008.9
20260904034204 58 69 0.0 0.0 0.00 0.03 0.03 77 1008.8
20260904033204 58 69 0.0 0.0 0.00 0.03 0.03 78 1008.8
20260904032704 59 69 0.0 0.0 0.00 0.03 0.03 78 1008.7
20260904032204 59 69 0.0 0.0 0.00 0.03 0.03 79 1008.6
20260904031204 59 69 0.0 0.0 0.00 0.03 0.03 78 1008.6
20260904025704 59 69 0.0 0.0 0.00 0.03 0.03 77 1008.5